Location: Hains Lake
(37.8540°N, 99.8578°W)
Time: 19:03:38
(UTC+00:00)

Transit 2A - Pass Details

Date: 23 April 2021
Orbit: 602 x 957 km, 66.7° (Epoch: 13 May)

Event Time Altitude Azimuth Distance (km) Brightness Sun altitude
Rises 23:16:37 0° 310° (NW) 2,925 9.7 23.8°
Reaches altitude 10° 23:19:44 10° 286° (WNW) 2,061 9.8 23.2°
Maximum altitude 23:22:18 15° 253° (WSW) 1,801 9.8 22.7°
Drops below altitude 10° 23:24:58 10° 219° (SW) 2,157 9.0 22.1°
Sets 23:28:22 0° 196° (SSW) 3,150 9.4 21.5°
